Date,TemperatureHighF,TemperatureAvgF,TemperatureLowF,DewpointHighF,DewpointAvgF,DewpointLowF,HumidityHigh,HumidityAvg,HumidityLow,PressureMaxIn,PressureMinIn,WindSpeedMaxMPH,WindSpeedAvgMPH,GustSpeedMaxMPH,PrecipitationSumIn
2014-1-1,0,-9,-16,-5,-14,-19,88,77,58,30.54,30.28,5,1,10,0.00
2014-1-2,0,-10,-20,-10,-15,-23,87,78,58,30.49,30.39,5,1,8,0.00
2014-1-3,17,6,-24,11,2,-28,88,82,69,30.43,29.86,20,5,29,0.00
2014-1-4,28,22,17,26,18,9,92,82,70,30.01,29.65,13,5,21,0.00
2014-1-5,20,15,10,13,10,6,89,81,67,30.13,29.83,10,3,18,0.00
2014-1-6,9,1,-7,6,-3,-12,87,82,75,29.81,29.71,14,4,22,0.00
2014-1-7,7,-2,-9,-4,-8,-14,80,74,62,30.13,29.78,16,7,24,0.00
2014-1-8,16,8,0,8,3,-6,87,79,70,30.42,30.13,14,5,18,0.00
2014-1-9,20,11,-4,14,7,-6,92,83,72,30.53,30.24,8,2,13,0.00
2014-1-10,33,26,18,32,24,15,94,91,85,30.23,29.59,11,4,16,0.00
2014-1-11,36,33,31,34,32,29,94,93,91,29.58,29.19,15,4,21,0.57
2014-1-12,35,32,30,31,29,26,92,86,78,29.71,29.46,10,4,15,0.00
2014-1-13,36,34,28,34,30,23,94,88,79,29.59,29.40,11,3,14,0.02
2014-1-14,31,27,23,25,22,20,94,83,72,29.75,29.59,6,2,12,0.00
2014-1-15,23,14,9,22,12,7,94,90,85,29.89,29.64,16,4,19,0.00
2014-1-16,25,21,18,23,19,14,93,90,85,29.77,29.58,17,6,23,0.00
2014-1-17,29,24,16,26,22,14,94,92,87,29.80,29.62,7,1,13,0.00
2014-1-18,20,11,-2,19,2,-100,94,82,72,29.87,29.67,5,-62,11,0.00
2014-1-19,27,20,10,23,16,3,94,86,73,29.65,29.31,14,5,22,0.00
2014-1-20,9,0,-10,3,-7,-14,80,74,49,30.22,29.61,12,2,14,0.00
2014-1-21,0,-14,-26,-9,-19,-30,86,78,60,30.34,30.22,5,0,9,0.00
2014-1-22,2,-1,-11,0,-4,-14,89,87,84,30.23,29.97,14,3,18,0.00
2014-1-23,3,-5,-19,-3,-10,-22,87,78,61,30.46,30.13,9,2,13,0.00
2014-1-24,20,11,-18,18,9,-21,93,90,83,30.34,29.23,22,6,28,0.00
2014-1-25,20,7,-2,18,2,-6,93,82,65,29.64,29.15,13,4,24,0.00
2014-1-26,4,-3,-10,1,-6,-14,89,86,83,29.64,29.36,7,1,10,0.00
2014-1-27,3,-2,-10,0,-8,-14,89,77,63,30.08,29.42,15,4,26,0.00
2014-1-28,6,-1,-10,2,-6,-15,86,79,70,30.13,29.86,15,6,25,0.00
2014-1-29,16,9,3,12,4,-1,87,82,68,29.97,29.81,15,6,24,0.00
2014-1-30,27,23,16,23,18,12,94,83,69,29.91,29.53,12,5,19,0.00
2014-1-31,17,14,10,13,9,6,88,82,68,30.10,29.70,10,3,14,0.00
2014-2-1,20,16,11,17,13,9,93,89,84,30.11,29.95,5,1,8,0.00
2014-2-2,20,12,-7,14,8,-9,93,85,72,30.27,29.99,7,2,12,0.00
2014-2-3,17,6,-14,13,-5,-100,92,74,57,30.34,30.27,9,-61,16,0.00
2014-2-4,22,13,0,14,8,-2,93,81,66,30.44,30.32,6,1,11,0.00
2014-2-5,16,8,3,5,2,-1,86,77,60,30.36,30.22,12,2,15,0.00
2014-2-6,14,8,1,7,4,-1,88,82,68,30.34,30.09,14,4,25,0.00
2014-2-7,14,10,2,9,5,-1,89,81,72,30.11,30.01,17,7,31,0.00
2014-2-8,20,8,-4,7,1,-7,91,74,56,30.22,30.12,9,2,11,0.00
2014-2-9,19,5,-7,8,-1,-10,91,78,57,30.20,30.06,8,1,13,0.00
2014-2-10,11,1,-10,3,-4,-13,90,79,57,30.42,30.20,10,2,13,0.00
2014-2-11,12,-1,-14,6,-6,-18,90,78,56,30.51,30.37,7,1,13,0.00
2014-2-12,20,15,9,17,12,5,92,86,78,30.37,30.06,13,3,20,0.00
2014-2-13,23,20,15,20,17,13,93,90,83,30.07,29.57,23,6,28,0.00
2014-2-14,25,18,8,21,15,5,93,88,80,29.82,29.50,10,3,19,0.00
2014-2-15,16,8,-3,7,2,-6,90,78,55,30.09,29.83,5,1,9,0.00
2014-2-16,17,9,-8,7,2,-11,90,74,48,30.40,30.05,6,2,10,0.00
2014-2-17,17,6,-11,11,2,-14,91,81,67,30.43,29.85,21,6,32,0.00
2014-2-18,27,19,6,22,16,4,94,87,72,29.86,29.61,14,4,15,0.00
2014-2-19,38,24,10,29,20,8,94,86,68,29.92,29.58,6,2,13,0.09
2014-2-20,33,25,16,32,22,15,94,89,77,29.99,29.45,25,4,36,0.00
2014-2-21,35,28,18,34,27,16,94,92,85,29.42,29.13,26,10,37,0.17
2014-2-22,20,17,12,16,13,9,91,84,72,29.82,29.43,19,8,30,0.00
2014-2-23,18,13,6,10,7,2,91,78,63,29.97,29.83,15,6,24,0.00
2014-2-24,14,8,0,9,3,-3,89,81,64,30.14,29.95,11,3,19,0.00
2014-2-25,16,7,-3,10,3,-6,91,84,71,30.13,29.95,11,3,18,0.00
2014-2-26,9,1,-19,7,-4,-22,89,80,63,30.01,29.48,18,4,23,0.00
2014-2-27,5,-4,-18,-1,-12,-23,85,71,54,30.25,29.49,18,6,24,0.00
2014-2-28,11,-5,-28,8,-10,-32,90,77,62,30.36,30.09,11,4,16,0.00
2014-3-1,12,6,-5,9,-1,-11,90,72,53,30.38,30.03,15,4,20,0.00
2014-3-2,7,-3,-19,-5,-21,-100,85,64,46,30.42,30.32,9,-103,15,0.00
2014-3-3,13,-1,-21,4,-18,-100,88,65,46,30.51,30.34,12,-102,20,0.00
2014-3-4,20,13,7,13,8,3,90,80,60,30.34,30.21,6,2,11,0.00
2014-3-5,18,5,-10,5,-2,-13,91,74,44,30.64,30.32,9,2,19,0.00
2014-3-6,22,8,-14,14,3,-17,90,79,59,30.63,30.14,16,5,23,0.00
2014-3-7,32,22,11,28,18,8,93,84,67,30.12,29.85,7,2,12,0.00
2014-3-8,27,18,6,22,12,3,93,77,55,30.21,29.98,10,2,14,0.02
2014-3-9,31,11,-4,19,6,-7,92,82,59,30.16,29.71,9,2,16,0.00
2014-5-16,-200,0,200,-100,-100,-100,0,0,100,0.00,40.00,0,-999,0,0.00